Pardubice, Czech Republic

9:08 PM CEST on April 27, 2017 (GMT +0200)
Pardubice

Weather History for LKPD - October, 2013

Change the Weather History Date:

Tuesday, October 1, 2013

  Actual Average Record
Temperature  
Mean Temperature 42 °F -  
Max Temperature 55 °F - - ()
Min Temperature 30 °F - - ()
Degree Days  
Heating Degree Days 22    
Moisture  
Dew Point 32 °F    
Average Humidity 75    
Maximum Humidity 100    
Minimum Humidity 38    
Precipitation  
Precipitation 0.00 in - - ()
Sea Level Pressure  
Sea Level Pressure 29.95 in    
Wind  
Wind Speed 1 mph ()    
Max Wind Speed 10 mph    
Max Gust Speed -    
Visibility 3.2 miles    
Events Fog    
T = Trace of Precipitation, MM = Missing Value Source: Averaged Metar Reports

Daily Weather History Graph

Daily Weather History Graph

Search for Another Location

Airport or City:

Trip Planner

Search our weather history database for the weather conditions in past years. The results will help you decide how hot, cold, wet, or windy it might be!

Date:

Astronomy

Oct. 01, 2013 Rise Set
Actual Time 6:57 AM CEST 6:35 PM CEST
Civil Twilight 6:24 AM CEST 7:07 PM CEST
Nautical Twilight 5:47 AM CEST 7:45 PM CEST
Astronomical Twilight 5:08 AM CEST 8:23 PM CEST
Moon 2:56 AM CEST (10/1) 4:44 PM CEST (10/1)
Length of Visible Light 12h 42m
Length of Day
11h 38m
Waning Crescent, 14% of the Moon is Illuminated
Oct 1
Waning Crescent
Oct 5
New
Oct 12
First Quarter
Oct 19
Full
Oct 27
Last Quarter

Hourly Weather History & Observations

Time (CEST) Temp. Windchill Dew Point Humidity Pressure Visibility Wind Dir Wind Speed Gust Speed Precip Events Conditions
12:00 AM 37.4 °F - 35.6 °F 93% 29.92 in - Calm Calm - N/A   Clear
1:00 AM 35.6 °F - 33.8 °F 93% 29.92 in - Calm Calm - N/A   Clear
2:00 AM 33.8 °F - 32.0 °F 93% 29.92 in - Calm Calm - N/A   Clear
3:00 AM 33.8 °F - 32.0 °F 93% 29.92 in - Calm Calm - N/A   Clear
4:00 AM 32.0 °F - 30.2 °F 93% 29.92 in - Calm Calm - N/A   Clear
5:00 AM 32.0 °F - 30.2 °F 93% 29.92 in - Calm Calm - N/A   Clear
6:00 AM 30.2 °F - 28.4 °F 93% 29.92 in - Calm Calm - N/A   Clear
6:23 AM 30.2 °F - 30.2 °F 100% 29.92 in 1.9 mi Calm Calm - N/A Fog Fog
6:35 AM 30.2 °F - 28.4 °F 93% 29.92 in 1.2 mi Calm Calm - N/A Fog Fog
6:41 AM 30.2 °F - 28.4 °F 93% 29.92 in 0.6 mi Calm Calm - N/A Fog Fog
6:50 AM 30.2 °F - 28.4 °F 93% 29.92 in 3.1 mi Calm Calm - N/A Fog Fog
7:00 AM 30.2 °F - 28.4 °F 93% 29.95 in 3.1 mi Calm Calm - N/A Fog Fog
7:28 AM 30.2 °F - 30.2 °F 100% 29.95 in - Calm Calm - N/A   Clear
8:00 AM 32.0 °F - 32.0 °F 100% 29.95 in - Calm Calm - N/A   Clear
9:00 AM 37.4 °F - 33.8 °F 87% 29.95 in - Calm Calm - N/A   Clear
10:00 AM 42.8 °F - 35.6 °F 76% 29.95 in - Variable 1.2 mph - N/A   Clear
11:00 AM 46.4 °F - 35.6 °F 66% 29.95 in - Variable 1.2 mph - N/A   Clear
12:00 PM 51.8 °F - 33.8 °F 50% 29.95 in 6.2 mi East 4.6 mph - N/A   Partly Cloudy
1:00 PM 53.6 °F - 33.8 °F 47% 29.95 in 6.2 mi SE 4.6 mph - N/A   Partly Cloudy
2:00 PM 55.4 °F - 33.8 °F 44% 29.95 in - Variable 3.5 mph - N/A   Clear
3:00 PM 55.4 °F - 30.2 °F 38% 29.95 in - ENE 6.9 mph - N/A   Clear
4:00 PM 55.4 °F - 35.6 °F 47% 29.95 in - ENE 8.1 mph - N/A   Clear
5:00 PM 55.4 °F - 32.0 °F 41% 29.95 in - ENE 9.2 mph - N/A   Clear
6:00 PM 51.8 °F - 30.2 °F 44% 29.98 in - ENE 10.4 mph - N/A   Clear
7:00 PM 50.0 °F - 32.0 °F 50% 30.01 in - ENE 6.9 mph - N/A   Clear
8:00 PM 46.4 °F 44.3 °F 32.0 °F 57% 30.01 in - NE 4.6 mph - N/A   Clear
9:00 PM 44.6 °F 43.1 °F 33.8 °F 66% 30.04 in - NNE 3.5 mph - N/A   Clear
10:00 PM 42.8 °F 40.1 °F 33.8 °F 70% 30.06 in - NNE 4.6 mph - N/A   Clear
11:00 PM 39.2 °F - 33.8 °F 81% 30.06 in - Variable 1.2 mph - N/A   Clear